This is the latest recevied weather packets stored in our database for station/object KJ5SC. If no packets are shown the sender has not sent any weather packets the latest 10 day(s).
| Time | Temp. | Humidity | Pressure | Rain* | Wind** | Luminosity | Snow |
|---|---|---|---|---|---|---|---|
| 1787753641 | 28.33° C | 83% | 1020.3 hPa | 0 mm | - | 99 W/m² | - |
| 1787753340 | 28.33° C | 84% | 1020.3 hPa | 0 mm | - | 85 W/m² | - |
| 1787753035 | 28.33° C | 83% | 1020.2 hPa | 0 mm | - | 106 W/m² | - |
| 1787752734 | 27.78° C | 85% | 1020.3 hPa | 0 mm | - | 162 W/m² | - |
| 1787752429 | 27.78° C | 87% | 1020.4 hPa | 0 mm | - | 220 W/m² | - |
| 1787752124 | 27.22° C | 88% | 1020.2 hPa | 0 mm | - | 147 W/m² | - |
| 1787751812 | 26.67° C | 90% | 1020 hPa | 0 mm | - | 81 W/m² | - |
| 1787751507 | 26.11° C | 90% | 1020.1 hPa | 0 mm | - | 62 W/m² | - |
| 1787751203 | 26.11° C | 91% | 1020 hPa | 0 mm | - | 59 W/m² | - |
| 1787750898 | 25.56° C | 91% | 1020.3 hPa | 0 mm | - | 55 W/m² | - |
| 1787750594 | 25.56° C | 92% | 1020.2 hPa | 0 mm | - | 52 W/m² | - |
| 1787750288 | 25° C | 92% | 1020.2 hPa | 0 mm | - | 48 W/m² | - |
| 1787749983 | 25° C | 92% | 1020.1 hPa | 0 mm | - | 45 W/m² | - |
| 1787749680 | 25° C | 92% | 1020.3 hPa | 0 mm | - | 42 W/m² | - |
| 1787749375 | 24.44° C | 93% | 1019.6 hPa | 0 mm | - | 40 W/m² | - |
| 1787749075 | 24.44° C | 93% | 1019.6 hPa | 0 mm | - | 36 W/m² | - |
| 1787748775 | 24.44° C | 93% | 1019.6 hPa | 0 mm | - | 33 W/m² | - |
| 1787748474 | 24.44° C | 94% | 1019.6 hPa | 0 mm | - | 29 W/m² | - |
| 1787748171 | 24.44° C | 94% | 1019.7 hPa | 0 mm | - | 26 W/m² | - |
| 1787747870 | 24.44° C | 94% | 1019.5 hPa | 0 mm | - | 23 W/m² | - |
| 1787747566 | 24.44° C | 94% | 1019.4 hPa | 0 mm | - | 20 W/m² | - |
| 1787747265 | 24.44° C | 93% | 1019.3 hPa | 0 mm | - | 17 W/m² | - |
| 1787746961 | 24.44° C | 93% | 1019.3 hPa | 0 mm | - | 14 W/m² | - |
| 1787746657 | 24.44° C | 93% | 1019.3 hPa | 0 mm | - | 11 W/m² | - |
| 1787746356 | 24.44° C | 93% | 1019.3 hPa | 0 mm | - | 8 W/m² | - |
* Rain latest hour (hover to see other rain measurements)
** Current wind speed in m/s (hover to see current wind gust speed)